East Porterville
DateTemperatureDew Point
05/03 - 02:45 PM75.5°53.4°
05/03 - 02:30 PM75.8°53.6°
05/03 - 02:15 PM75.2°53.9°
05/03 - 02:00 PM75.3°54.3°
05/03 - 01:45 PM75.8°54.6°
05/03 - 01:30 PM75.4°55.2°
05/03 - 01:15 PM75.1°55.2°
05/03 - 01:00 PM74.4°55.5°
05/03 - 12:45 PM73.0°55.1°
05/03 - 12:30 PM72.4°55.5°
05/03 - 12:15 PM73.5°56.2°
05/03 - 12:00 PM72.4°56.3°
05/03 - 11:45 AM71.1°55.8°
05/03 - 11:30 AM70.9°55.4°
05/03 - 11:15 AM70.9°55.5°
05/03 - 11:00 AM71.0°55.7°
05/03 - 10:45 AM69.2°55.1°
05/03 - 10:30 AM67.6°54.9°
05/03 - 10:15 AM67.4°54.7°
05/03 - 10:00 AM66.4°54.2°
05/03 - 09:45 AM64.9°53.9°
05/03 - 09:30 AM64.0°53.7°
05/03 - 09:15 AM63.3°53.2°
05/03 - 09:00 AM63.0°53.2°
05/03 - 08:45 AM62.7°52.7°
05/03 - 08:30 AM62.2°52.4°
05/03 - 08:15 AM61.6°51.9°
05/03 - 08:00 AM61.7°51.7°
05/03 - 07:45 AM60.8°52.1°
05/03 - 07:30 AM59.4°51.5°
05/03 - 07:15 AM57.7°51.7°
05/03 - 07:00 AM56.1°51.9°
05/03 - 06:45 AM54.8°51.9°
05/03 - 06:30 AM53.8°52.2°
05/03 - 06:15 AM53.1°52.3°
05/03 - 06:00 AM53.2°52.7°
05/03 - 05:45 AM53.6°53.5°
05/03 - 05:30 AM54.1°54.1°
05/03 - 05:15 AM54.5°54.4°
05/03 - 05:00 AM54.9°54.9°
05/03 - 04:45 AM55.5°55.4°
05/03 - 04:30 AM55.7°55.7°
05/03 - 04:15 AM56.1°56.1°
05/03 - 04:00 AM56.8°56.8°
05/03 - 03:45 AM57.3°57.3°
05/03 - 03:30 AM57.6°57.6°
05/03 - 03:15 AM57.8°57.8°
05/03 - 03:00 AM57.8°57.7°
05/03 - 02:45 AM57.2°57.2°
05/03 - 02:30 AM57.3°57.2°
05/03 - 02:15 AM56.9°56.6°
05/03 - 02:00 AM57.0°56.5°
05/03 - 01:45 AM56.8°56.0°
05/03 - 01:30 AM56.9°55.7°
05/03 - 01:15 AM57.3°55.8°
05/03 - 01:00 AM57.9°55.7°
05/03 - 12:45 AM58.5°56.2°
05/03 - 12:30 AM58.9°56.0°
05/03 - 12:15 AM59.2°55.6°
05/03 - 12:00 AM59.8°54.9°
05/02 - 11:45 PM60.5°54.8°
05/02 - 11:30 PM60.9°54.5°
05/02 - 11:15 PM61.5°53.7°
05/02 - 11:00 PM62.0°53.7°
05/02 - 10:45 PM61.9°53.3°
05/02 - 10:30 PM62.1°53.5°
05/02 - 10:15 PM62.9°53.7°
05/02 - 10:00 PM63.6°53.5°
05/02 - 09:45 PM64.6°53.9°
05/02 - 09:30 PM65.4°53.4°
05/02 - 09:15 PM66.0°53.3°
05/02 - 09:00 PM67.1°52.7°
05/02 - 08:45 PM68.5°53.1°
05/02 - 08:30 PM70.2°53.4°
05/02 - 08:15 PM71.9°52.4°
05/02 - 08:00 PM74.1°52.3°
05/02 - 07:45 PM76.6°52.4°
05/02 - 07:30 PM79.1°51.2°
05/02 - 07:15 PM81.6°50.4°
05/02 - 07:00 PM84.1°50.4°
05/02 - 06:45 PM85.9°50.5°
05/02 - 06:30 PM87.3°49.2°
05/02 - 06:15 PM88.3°48.6°
05/02 - 06:00 PM88.9°47.9°
05/02 - 05:45 PM89.5°48.4°
05/02 - 05:30 PM89.6°48.0°
05/02 - 05:15 PM90.1°48.0°
05/02 - 05:00 PM90.6°48.7°
05/02 - 04:45 PM91.2°48.6°
05/02 - 04:30 PM91.7°48.1°
05/02 - 04:15 PM91.3°47.8°
05/02 - 04:00 PM91.1°47.5°
05/02 - 03:45 PM91.3°47.0°
05/02 - 03:30 PM91.3°47.3°
05/02 - 03:15 PM91.6°48.1°
05/02 - 03:00 PM92.1°48.4°
05/02 - 02:45 PM91.1°48.6°
05/02 - 02:30 PM91.0°49.7°
05/02 - 02:15 PM90.9°49.9°
05/02 - 02:00 PM91.6°48.3°
05/02 - 01:45 PM91.0°49.5°
05/02 - 01:30 PM90.7°52.1°
05/02 - 01:15 PM91.0°52.8°
05/02 - 01:00 PM90.6°54.8°
05/02 - 12:45 PM90.5°53.2°
05/02 - 12:30 PM89.3°53.7°
05/02 - 12:15 PM88.6°56.3°
05/02 - 12:00 PM88.0°55.5°
05/02 - 11:45 AM88.0°56.6°
05/02 - 11:30 AM87.0°56.9°
05/02 - 11:15 AM86.6°57.2°
05/02 - 11:00 AM85.4°56.1°
05/02 - 10:45 AM84.2°55.5°
05/02 - 10:30 AM82.8°54.4°
05/02 - 10:15 AM81.5°54.9°
05/02 - 10:00 AM79.6°54.8°
05/02 - 09:45 AM78.2°54.8°
05/02 - 09:30 AM76.4°55.3°
05/02 - 09:15 AM75.2°56.4°
05/02 - 09:00 AM74.1°57.0°
05/02 - 08:45 AM72.3°57.3°
05/02 - 08:30 AM70.5°56.4°
05/02 - 08:15 AM69.8°55.9°
05/02 - 08:00 AM67.9°55.0°
05/02 - 07:45 AM66.7°54.5°
05/02 - 07:30 AM65.3°54.3°
05/02 - 07:15 AM62.6°54.6°
05/02 - 07:00 AM60.2°54.3°
05/02 - 06:45 AM58.2°53.7°
05/02 - 06:30 AM56.3°53.4°
05/02 - 06:15 AM54.5°52.8°
05/02 - 06:00 AM53.3°52.1°
05/02 - 05:45 AM53.7°52.0°
05/02 - 05:30 AM54.0°52.0°
05/02 - 05:15 AM54.0°52.0°
05/02 - 05:00 AM53.9°52.2°
05/02 - 04:45 AM54.3°52.3°
05/02 - 04:30 AM54.6°52.4°
05/02 - 04:15 AM54.2°52.4°
05/02 - 04:00 AM54.5°53.1°
05/02 - 03:45 AM54.7°53.0°
05/02 - 03:30 AM54.9°53.3°
05/02 - 03:15 AM55.3°53.3°
05/02 - 03:00 AM55.6°53.3°
05/02 - 02:45 AM56.3°53.4°
05/02 - 02:30 AM57.1°53.3°
05/02 - 02:15 AM57.6°53.3°
05/02 - 02:00 AM57.9°53.1°
05/02 - 01:45 AM57.8°53.2°
05/02 - 01:30 AM58.0°53.9°
05/02 - 01:15 AM58.5°54.1°
05/02 - 01:00 AM59.2°54.2°
05/02 - 12:45 AM59.8°53.8°
05/02 - 12:30 AM60.8°53.7°
05/02 - 12:15 AM61.7°53.5°
05/02 - 12:00 AM62.9°53.7°
05/01 - 11:45 PM64.3°53.9°
05/01 - 11:30 PM66.7°54.6°
05/01 - 11:15 PM68.3°53.6°
05/01 - 11:00 PM68.1°52.8°
05/01 - 10:45 PM66.8°53.2°
05/01 - 10:30 PM66.0°53.1°
05/01 - 10:15 PM65.5°53.5°
05/01 - 10:00 PM66.5°53.6°
05/01 - 09:45 PM66.5°53.0°
05/01 - 09:30 PM66.0°53.1°
05/01 - 09:15 PM65.3°54.7°
05/01 - 09:00 PM66.2°56.7°
05/01 - 08:45 PM67.9°56.3°
05/01 - 08:30 PM69.0°56.1°
05/01 - 08:15 PM70.2°56.3°
05/01 - 08:00 PM72.3°56.3°
05/01 - 07:45 PM75.0°56.5°
05/01 - 07:30 PM78.0°56.1°
05/01 - 07:15 PM80.6°55.9°
05/01 - 07:00 PM82.8°55.2°
05/01 - 06:45 PM84.3°54.2°
05/01 - 06:30 PM85.0°53.1°
05/01 - 06:15 PM85.8°52.5°
05/01 - 06:00 PM86.5°52.4°
05/01 - 05:45 PM87.0°53.0°
05/01 - 05:30 PM87.6°53.1°
05/01 - 05:15 PM88.2°52.7°
05/01 - 05:00 PM88.6°52.5°
05/01 - 04:45 PM88.8°52.1°
05/01 - 04:30 PM89.5°52.1°
05/01 - 04:15 PM89.7°51.2°
05/01 - 04:00 PM89.8°50.1°
05/01 - 03:45 PM89.9°49.9°
05/01 - 03:30 PM89.9°48.4°